Overview Statistics Trail Chart Weather Telemetry Raw packets
 

This is the latest recevied weather packets stored in our database for station/object SP3ZBZ-13. If no packets are shown the sender has not sent any weather packets the latest 10 day(s).

<< 18 19 20 21 22 23 24 >>
Time Temp. Humidity Pressure Rain* Wind** Luminosity Snow
1788177794 21.67° C 71% 1007.4 hPa - - 227 W/m² -
1788176894 21.67° C 69% 1007.5 hPa - - 236 W/m² -
1788175993 21.67° C 71% 1007.7 hPa - - 211 W/m² -
1788175091 22.22° C 66% 1007.6 hPa - - 156 W/m² -
1788174190 22.78° C 63% 1007.4 hPa - - 196 W/m² -
1788173289 23.33° C 62% 1007.5 hPa - - 268 W/m² -
1788172388 23.33° C 65% 1007.6 hPa - - 365 W/m² -
1788171487 21.67° C 72% 1007.6 hPa - - 207 W/m² -
1788170586 21.67° C 69% 1007.5 hPa - - 213 W/m² -
1788169685 21.67° C 68% 1007.5 hPa - - 154 W/m² -
1788168785 21.67° C 70% 1007.8 hPa - - 240 W/m² -
1788167884 21.11° C 75% 1007.8 hPa - - 239 W/m² -
1788167000 21.11° C 70% 1007.8 hPa - - 251 W/m² -
1788166081 20.56° C 75% 1007.9 hPa - - 247 W/m² -
1788165181 20° C 75% 1008.2 hPa - - 175 W/m² -
1788164280 20° C 74% 1008 hPa - - 123 W/m² -
1788163379 19.44° C 76% 1008 hPa - - 151 W/m² -
1788162477 19.44° C 74% 1008.1 hPa - - 138 W/m² -
1788161577 18.89° C 75% 1008.1 hPa - - 167 W/m² -
1788160676 18.89° C 77% 1008.2 hPa - - 127 W/m² -
1788159775 18.89° C 76% 1008.2 hPa - - 148 W/m² -
1788158874 18.89° C 75% 1008.2 hPa - - 155 W/m² -
1788157973 18.33° C 77% 1008.1 hPa - - 139 W/m² -
1788157073 17.78° C 77% 1008.1 hPa - - 128 W/m² -
1788156172 16.67° C 82% 1008.2 hPa - - 115 W/m² -

* Rain since midnight (hover to see other rain measurements)
** Current wind speed in m/s (hover to see current wind gust speed)